Location: La Brionne
(46.1728°N, 1.7849°E)
Time: 06:48:14
(UTC+00:00)

Cosmos 2322 Rocket - Pass Details

Date: 01 November 2021
Orbit: 832 x 852 km, 71.0° (Epoch: 06 December)

Event Time Altitude Azimuth Distance (km) Brightness Sun altitude
Rises 17:46:41 0° 234° (SW) 3,368 6.5 -12.3°
Reaches altitude 10° 17:49:20 10° 243° (WSW) 2,439 5.9 -12.7°
Maximum altitude 17:54:22 34° 308° (NW) 1,362 3.7 -13.6°
Drops below altitude 10° 17:59:27 10° 12° (NNE) 2,460 4.4 -14.5°
Sets 18:02:09 0° 22° (NNE) 3,401 5.1 -14.9°
